This demonstration page uses our WeatherBlox Daily Observations layout. Learn more.

Hourly Observations for October 20, 2019

Temp ( °F °C ) Dew Point ( °F °C ) Humidity (%) Winds ( mph kmh ) Pressure ( in mb ) Visibility ( mi km ) Precip ( " mm )
12:15 am 00:15 Clear 52 11 46 8 82 82 Calm 30.01 1016 10 16.0934 0 0
12:35 am 00:35 Clear 50 10 46 8 88 88 Calm 30.02 1016 10 16.0934 0 0
12:55 am 00:55 Clear 50 10 46 8 88 88 Calm 30.02 1016 10 16.0934 0 0
1:15 am 01:15 Partly Cloudy 50 10 46 8 88 88 Calm 30.01 1016 10 16.0934 0 0
1:35 am 01:35 Partly Cloudy 50 10 46 8 88 88 Calm 30.02 1016 10 16.0934 0 0
1:55 am 01:55 Clear 52 11 48 9 88 88 Calm 30 1016 10 16.0934 0 0
2:15 am 02:15 Mostly Cloudy 52 11 48 9 88 88 SSE 3 6 29.98 1015 10 16.0934 0 0
2:35 am 02:35 Cloudy 52 11 48 9 88 88 Calm 29.98 1015 10 16.0934 0 0
2:55 am 02:55 Cloudy 52 11 48 9 88 88 SE 3 6 29.97 1015 10 16.0934 0 0
3:15 am 03:15 Cloudy 52 11 48 9 88 88 Calm 29.97 1015 10 16.0934 0 0
3:35 am 03:35 Cloudy 52 11 48 9 88 88 Calm 29.97 1015 10 16.0934 0 0
3:55 am 03:55 Cloudy 52 11 48 9 88 88 Calm 29.96 1015 10 16.0934 0 0
4:15 am 04:15 Cloudy 52 11 48 9 88 88 Calm 29.96 1015 10 16.0934 0 0
4:35 am 04:35 Cloudy 52 11 50 10 94 94 Calm 29.96 1015 10 16.0934 0 0
4:55 am 04:55 Cloudy 52 11 50 10 94 94 Calm 29.97 1015 10 16.0934 0 0
5:15 am 05:15 Cloudy 50 10 50 10 100 100 Calm 29.98 1015 7 11.26538 0.02 0.508
5:35 am 05:35 Cloudy 50 10 50 10 100 100 Calm 29.99 1015 10 16.0934 0.03 0.762
5:55 am 05:55 Cloudy 50 10 50 10 100 100 Calm 29.99 1015 7 11.26538 0.05 1.27
6:15 am 06:15 Cloudy 50 10 50 10 100 100 Calm 29.99 1015 7 11.26538 0.02 0.508
6:35 am 06:35 Cloudy 50 10 50 10 100 100 Calm 29.99 1015 7 11.26538 0.05 1.27
6:55 am 06:55 Cloudy 50 10 50 10 100 100 Calm 29.99 1015 7 11.26538 0.07 1.778
7:15 am 07:15 Cloudy 50 10 50 10 100 100 Calm 29.98 1015 7 11.26538 0.01 0.254
7:35 am 07:35 Cloudy 50 10 50 10 100 100 Calm 29.99 1015 5 8.0467 0.03 0.762
7:55 am 07:55 Cloudy 50 10 50 10 100 100 NE 3 6 29.98 1015 5 8.0467 0.04 1.016
8:15 am 08:15 Cloudy 50 10 50 10 100 100 NE 5 7 29.98 1015 3 4.82802 0.03 0.762
8:35 am 08:35 Cloudy 50 10 50 10 100 100 Calm 29.99 1015 5 8.0467 0.04 1.016
8:55 am 08:55 Cloudy 50 10 50 10 100 100 Calm 30 1016 5 8.0467 0.05 1.27
9:15 am 09:15 Cloudy 50 10 50 10 100 100 NE 3 6 30 1016 4 6.43736 0.01 0.254
9:35 am 09:35 Cloudy 50 10 50 10 100 100 NE 6 9 30.01 1016 3 4.82802 0.03 0.762
9:55 am 09:55 Cloudy 50 10 50 10 100 100 NE 5 7 30.01 1016 4 6.43736 0.05 1.27
10:15 am 10:15 Cloudy 50 10 50 10 100 100 NNE 5 7 29.99 1015 4 6.43736 0.01 0.254
10:35 am 10:35 Cloudy 50 10 50 10 100 100 NE 6 9 29.99 1015 4 6.43736 0.03 0.762
10:55 am 10:55 Cloudy 50 10 50 10 100 100 NE 6 9 29.98 1015 5 8.0467 0.03 0.762
11:15 am 11:15 Cloudy 50 10 50 10 100 100 NE 6 9 29.97 1015 3 4.82802 0.01 0.254
11:35 am 11:35 Cloudy 50 10 50 10 100 100 NE 9 15 29.97 1015 3 4.82802 0.01 0.254
12:15 pm 12:15 Cloudy 50 10 50 10 100 100 NNE 8 13 29.96 1014 3 4.82802 0.02 0.508
12:35 pm 12:35 Cloudy 50 10 50 10 100 100 NNE 7 11 29.94 1014 2.5 4.02335 0.05 1.27
12:55 pm 12:55 Cloudy 52 11 52 11 100 100 NNE 8 13 29.93 1014 3 4.82802 0.1 2.54
1:15 pm 13:15 Cloudy 52 11 52 11 100 100 NNE 7 11 29.93 1014 3 4.82802 0.02 0.508
1:35 pm 13:35 Cloudy 52 11 52 11 100 100 NNE 8 13 29.91 1013 4 6.43736 0.03 0.762
1:55 pm 13:55 Cloudy 52 11 52 11 100 100 NNE 8 13 29.91 1013 4 6.43736 0.04 1.016
2:15 pm 14:15 Cloudy 52 11 52 11 100 100 NNE 7 11 29.9 1013 3 4.82802 0.01 0.254
2:35 pm 14:35 Cloudy 52 11 52 11 100 100 NNE 7 11 29.9 1013 2.5 4.02335 0.04 1.016
2:55 pm 14:55 Cloudy 52 11 52 11 100 100 NNE 9 15 29.9 1013 2.5 4.02335 0.09 2.286
3:35 pm 15:35 Cloudy 52 11 52 11 100 100 NNE 10 17 29.9 1013 3 4.82802 0.04 1.016
4:15 pm 16:15 Cloudy 52 11 52 11 100 100 N 9 15 29.91 1013 4 6.43736 0.01 0.254
4:35 pm 16:35 Cloudy 52 11 52 11 100 100 N 10 17 29.92 1013 4 6.43736 0.01 0.254
4:55 pm 16:55 Cloudy 52 11 52 11 100 100 N 8 13 29.92 1013 5 8.0467 0.02 0.508
5:15 pm 17:15 Cloudy 52 11 52 11 100 100 NNE 12 19 29.92 1013 5 8.0467 0 0
5:35 pm 17:35 Cloudy 52 11 52 11 100 100 N 12 19 29.93 1014 5 8.0467 0 0
5:55 pm 17:55 Cloudy 52 11 52 11 100 100 N 13 20 29.93 1014 5 8.0467 0 0
6:15 pm 18:15 Cloudy 52 11 52 11 100 100 NNE 14 22 29.93 1014 5 8.0467 0.01 0.254
6:35 pm 18:35 Cloudy 52 11 52 11 100 100 NNE 9 15 29.94 1014 10 16.0934 0.01 0.254
6:55 pm 18:55 Cloudy 52 11 52 11 100 100 N 9 15 29.94 1014 10 16.0934 0.01 0.254
7:15 pm 19:15 Cloudy 52 11 52 11 100 100 N 10 17 29.95 1014 10 16.0934 0 0
7:35 pm 19:35 Cloudy 52 11 52 11 100 100 NNE 10 17 29.95 1014 7 11.26538 0 0
7:55 pm 19:55 Cloudy 52 11 52 11 100 100 NNE 9 15 29.95 1014 10 16.0934 0 0
8:15 pm 20:15 Cloudy 52 11 52 11 100 100 NNE 12 19 29.95 1014 10 16.0934 0 0
8:35 pm 20:35 Cloudy 52 11 52 11 100 100 NNE 9 15 29.96 1015 10 16.0934 0 0
8:55 pm 20:55 Cloudy 52 11 52 11 100 100 N 10 17 29.97 1015 10 16.0934 0 0
9:15 pm 21:15 Cloudy 52 11 52 11 100 100 N 10 17 29.97 1015 10 16.0934 0 0
9:35 pm 21:35 Cloudy 52 11 52 11 100 100 NNE 5 7 29.98 1015 10 16.0934 0 0
9:55 pm 21:55 Cloudy 52 11 52 11 100 100 N 3 6 29.98 1015 10 16.0934 0 0
10:15 pm 22:15 Cloudy 52 11 52 11 100 100 N 5 7 30 1016 7 11.26538 0 0
10:35 pm 22:35 Cloudy 52 11 52 11 100 100 N 5 7 30 1016 7 11.26538 0 0
10:55 pm 22:55 Cloudy 52 11 52 11 100 100 N 3 6 30 1016 7 11.26538 0 0
11:15 pm 23:15 Cloudy 52 11 52 11 100 100 NNE 5 7 30 1016 7 11.26538 0 0
11:35 pm 23:35 Cloudy 52 11 52 11 100 100 N 5 7 30.01 1016 5 8.0467 0 0
11:55 pm 23:55 Cloudy 52 11 50 10 94 94 NNE 9 15 30.01 1016 10 16.0934 0 0

Powered by AerisWeather